Location: Cardiff
(53.7833°N, 113.6000°W)
Time: 19:54:46
(UTC+00:00)

NOAA 15 - Pass Details

Date: 11 December 2023
Orbit: 796 x 810 km, 98.6° (Epoch: 21 February)

Event Time Altitude Azimuth Distance (km) Brightness Sun altitude
Rises 13:53:19 0° 27° (NNE) 3,322 7.9 -14.7°
Reaches altitude 10° 13:56:43 10° 50° (NE) 2,383 7.5 -14.3°
Maximum altitude 13:59:43 15° 85° (E) 2,034 7.7 -13.8°
Drops below altitude 10° 14:02:42 10° 120° (ESE) 2,370 8.5 -13.4°
Sets 14:06:04 0° 143° (SE) 3,293 8.8 -13.0°
